Regional Weather Roundup
Issued by NWS Kansas City/Pleasant Hill, MO

Home | Current Version | Previous Version | Graphics & Text | Print | Product List | Glossary Off
Versions: 1 2 3 4 5 6 7 8 9 10 11 12 13 14 15 16 17 18 19 20 21 22 23 24 25 26 27 28

000
ASUS43 KEAX 231310
RWREAX

WEATHER ROUNDUP FOR EASTERN KANSAS AND NORTHWEST MISSOURI
NATIONAL WEATHER SERVICE KANSAS CITY/PLEASANT HILL MO
800 AM CDT TUE MAY 23 2017

KSZ040-057-103>105-MOZ028-029-037-043-231400-
...KANSAS CITY METROPOLITAN AREA...

CITY           SKY/WX    TMP DP  RH WIND       PRES   REMARKS
K.C. INTL      LGT RAIN  53  51  93 N10       29.88S
K.C. DOWNTOWN  LGT RAIN  56  52  86 NW3       29.88R
LEES SUMMIT    LGT RAIN  56  55  97 N14       29.88R
OLATHE - IXD   LGT RAIN  54  51  90 NW14      29.90R
OLATHE - OJC   LGT RAIN  54  53  97 N12       29.89R
LAWRENCE       LGT RAIN  54  52  93 NW9       29.90R

$$

MOZ001>008-011>017-020>025-030>033-038>040-044>046-053-054-231400-
...NORTHERN AND CENTRAL MISSOURI...

CITY           SKY/WX    TMP DP  RH WIND       PRES   REMARKS
ST. JOSEPH     MOSUNNY   55  51  86 N14       29.90S
MOSBY          DRIZZLE   55  52  88 N10       29.88R
WARRENSBURG    CLOUDY    55  54  94 W5        29.86R
WHITEMAN AFB   CLOUDY    57  57 100 W7        29.85R
CLINTON        MOSUNNY   57  57 100 NW6       29.86R
SEDALIA        CLOUDY    57  57 100 NW6       29.86R
WARSAW         NOT AVBL
CHILLICOTHE      N/A     55  52  89 VRB3      29.87R
KIRKSVILLE     CLOUDY    56  54  93 NW7       29.83F

$$

MOZ041-047>049-056>058-063>065-088>090-097-231400-
...EASTERN AND SOUTHERN MISSOURI...

CITY           SKY/WX    TMP DP  RH WIND       PRES   REMARKS
ST. LOUIS INTL CLOUDY    66  56  70 E6        29.81F
SPIRIT OF STL  PTSUNNY   63  59  87 CALM      29.80F
COLUMBIA       CLOUDY    58  57  97 N5        29.82S
JEFFERSON CITY CLOUDY    60  56  86 CALM      29.82S
ROLLA          RAIN      57  57 100 W3        29.81F FOG
OSAGE BEACH    LGT RAIN  58  57  97 CALM      29.83F
SPRINGFIELD    CLOUDY    60  58  92 SW5       29.84S
BRANSON        PTSUNNY   57  57 100 W6        29.85F
JOPLIN         MOSUNNY   61  58  90 W6        29.87R
WEST PLAINS    CLOUDY    61  53  75 W6        29.83F

$$

IAZ060-094-KSZ022-034>040-054-083-096-NEZ052-066-093-231400-
...KANSAS...SOUTHEAST NEBRASKA AND IOWA...

CITY           SKY/WX    TMP DP  RH WIND       PRES   REMARKS
TOPEKA         CLOUDY    54  51  90 NW6       29.92R
MANHATTAN      MOSUNNY   56  49  77 CALM      29.95S
EMPORIA        CLOUDY    54  49  83 N12       29.93R
CHANUTE        CLOUDY    57  52  83 N13       29.89R
WICHITA        PTSUNNY   54  50  86 N14       29.97R
OMAHA          PTSUNNY   53  43  68 NW12      29.92R
LINCOLN        SUNNY     53  45  74 NW9       29.95S
FALLS CITY     SUNNY     54  47  77 NW8       29.91S
LAMONI         MOSUNNY   52  49  89 NW7       29.87R
DES MOINES     MOSUNNY   54  49  83 NW10      29.84F

$$





USA.gov is the U.S. government's official web portal to all federal, state and local government web resources and services.